Overview Statistics Trail Chart Weather Telemetry Raw packets
 

This is the latest recevied weather packets stored in our database for station/object HP3ICC-23. If no packets are shown the sender has not sent any weather packets the latest 10 day(s).

<< 1 2 3 4 5 >>
Time Temp. Humidity Pressure Rain* Wind** Luminosity Snow
1788648231 15.56° C 86% 1010 hPa 0 mm - - -
1788648171 15.56° C 86% 1010 hPa 0 mm - - -
1788647031 16.11° C 82% 1010 hPa 0.25 mm - - -
1788646971 16.11° C 82% 1010 hPa 0.25 mm - - -
1788645831 15.56° C 81% 1010 hPa 0.25 mm - - -
1788645771 15.56° C 81% 1010 hPa 0.25 mm - - -
1788644631 16.11° C 81% 1010 hPa 0.25 mm - - -
1788644570 16.11° C 81% 1010 hPa 0.25 mm - - -
1788643370 16.67° C 79% 1010 hPa 0.51 mm - - -
1788642230 16.11° C 79% 1010 hPa 0.51 mm - - -
1788642170 16.11° C 79% 1010 hPa 0.51 mm - - -
1788641030 16.67° C 80% 1010 hPa 0 mm - - -
1788640969 16.67° C 80% 1010 hPa 0 mm - - -
1788639829 17.22° C 78% 1010 hPa 0 mm - - -
1788638629 17.22° C 78% 1010 hPa 0 mm - - -
1788638569 17.22° C 78% 1010 hPa 0 mm - - -
1788637429 17.22° C 78% 1010 hPa 0.51 mm - - -
1788636228 17.22° C 77% 1011 hPa 0.51 mm - - -
1788635028 17.22° C 77% 1011 hPa 0.51 mm - - -
1788633828 17.22° C 77% 1011 hPa 0.51 mm - - -
1788633768 17.22° C 77% 1011 hPa 0.51 mm - - -
1788632628 16.67° C 76% 1011 hPa 0.25 mm - - -
1788632568 16.67° C 76% 1011 hPa 0.25 mm - - -
1788631448 16.67° C 76% 1011 hPa 0.25 mm - - -
1788631368 16.67° C 76% 1011 hPa 0.25 mm - - -

* Rain latest hour (hover to see other rain measurements)
** Current wind speed in m/s (hover to see current wind gust speed)